Weather History for Greenville, MS

Change the Weather History Date:

Saturday, December 21, 2013

  Actual Average Record
Temperature  
Mean Temperature 72 °F 44 °F  
Max Temperature 77 °F 53 °F 77 °F (1967)
Min Temperature 64 °F 35 °F 18 °F (1958)
Cooling Degree Days 6 0  
Month to date cooling degree days 7 0  
Year to date cooling degree days 2254 2186  
Growing Degree Days 22 (Base 50)    
Moisture  
Dew Point 64 °F    
Average Humidity 78    
Maximum Humidity 87    
Minimum Humidity 69    
Precipitation  
Precipitation 0.20 in 0.17 in 3.60 in (1990)
Month to date precipitation 3.49 4.04  
Year to date precipitation 51.80 51.06  
Sea Level Pressure  
Sea Level Pressure 29.67 in    
Wind  
Wind Speed 19 mph (South)    
Max Wind Speed 30 mph    
Max Gust Speed 50 mph    
Visibility 7 miles    
Events Fog , Rain , Thunderstorm    
T = Trace of Precipitation, MM = Missing Value Source: NWS Daily Summary

Daily Weather History Graph

Daily Weather History Graph

Search for Another Location

Airport:

Trip Planner

Search our weather history database for the weather conditions in past years. The results will help you decide how hot, cold, wet, or windy it might be!

Date:

Astronomy

Dec. 21, 2013 Rise Set
Actual Time 7:04 AM CST 5:00 PM CST
Civil Twilight 6:36 AM CST 5:27 PM CST
Nautical Twilight 6:05 AM CST 5:58 PM CST
Astronomical Twilight 5:35 AM CST 6:29 PM CST
Moon 9:05 PM CST (12/21) 9:40 AM CST (12/21)
Length of Visible Light 10h 51m
Length of Day
9h 55m
Waning Gibbous, 84% of the Moon is Illuminated
Dec 21
Waning Gibbous
Dec 25
Last Quarter
Jan 1
New
Jan 7
First Quarter
Jan 15
Full

Hourly Weather History & Observations

Time (CST) Temp. Dew Point Humidity Pressure Visibility Wind Dir Wind Speed Gust Speed Precip Events Conditions
12:41 AM 68.0 °F 62.6 °F 83% 29.80 in 8.0 mi South 19.6 mph - N/A   Mostly Cloudy
12:53 AM 69.1 °F 63.0 °F 81% 29.82 in 7.0 mi South 17.3 mph 26.5 mph N/A   Mostly Cloudy
1:53 AM 69.1 °F 63.0 °F 81% 29.81 in 8.0 mi South 17.3 mph 25.3 mph N/A   Overcast
2:53 AM 68.0 °F 62.1 °F 81% 29.81 in 7.0 mi South 13.8 mph - N/A   Overcast
3:23 AM 68.0 °F 62.6 °F 83% 29.77 in 8.0 mi South 10.4 mph - N/A   Overcast
3:53 AM 66.9 °F 62.1 °F 84% 29.78 in 8.0 mi South 13.8 mph - N/A   Overcast
4:09 AM 66.2 °F 62.6 °F 88% 29.76 in 8.0 mi South 13.8 mph - N/A   Overcast
4:20 AM 66.2 °F 62.6 °F 88% 29.76 in 8.0 mi South 11.5 mph - N/A   Overcast
4:27 AM 66.2 °F 62.6 °F 88% 29.76 in 7.0 mi South 11.5 mph - N/A   Overcast
4:53 AM 66.9 °F 62.1 °F 84% 29.76 in 8.0 mi South 12.7 mph - N/A   Overcast
5:53 AM 66.9 °F 62.1 °F 84% 29.73 in 9.0 mi South 20.7 mph 25.3 mph N/A   Mostly Cloudy
6:10 AM 66.2 °F 62.6 °F 88% 29.71 in 9.0 mi South 15.0 mph - N/A   Scattered Clouds
6:26 AM 66.2 °F 62.6 °F 88% 29.70 in 9.0 mi South 18.4 mph - N/A   Mostly Cloudy
6:50 AM 66.2 °F 62.6 °F 88% 29.70 in 9.0 mi South 17.3 mph 26.5 mph N/A   Scattered Clouds
6:53 AM 66.0 °F 62.1 °F 87% 29.73 in 9.0 mi South 17.3 mph - N/A   Scattered Clouds
7:05 AM 66.2 °F 62.6 °F 88% 29.71 in 8.0 mi South 15.0 mph - N/A   Mostly Cloudy
7:53 AM 68.0 °F 62.1 °F 81% 29.73 in 9.0 mi SSE 13.8 mph 20.7 mph N/A   Overcast
8:35 AM 68.0 °F 62.6 °F 83% 29.70 in 9.0 mi South 18.4 mph - N/A   Mostly Cloudy
8:53 AM 69.1 °F 62.1 °F 78% 29.72 in 8.0 mi South 15.0 mph - N/A   Overcast
9:53 AM 71.1 °F 64.0 °F 78% 29.73 in 7.0 mi South 17.3 mph - N/A   Overcast
10:40 AM 71.6 °F 64.4 °F 78% 29.68 in 6.0 mi South 20.7 mph 28.8 mph N/A   Haze
10:48 AM 71.6 °F 64.4 °F 78% 29.67 in 6.0 mi South 20.7 mph 28.8 mph N/A   Haze
10:53 AM 73.0 °F 64.9 °F 76% 29.68 in 6.0 mi South 20.7 mph 26.5 mph N/A   Haze
11:00 AM 73.4 °F 64.4 °F 73% 29.66 in 6.0 mi South 23.0 mph 33.4 mph N/A   Haze
11:15 AM 73.4 °F 64.4 °F 73% 29.65 in 6.0 mi South 25.3 mph 32.2 mph N/A   Haze
11:26 AM 73.4 °F 64.4 °F 73% 29.64 in 6.0 mi South 19.6 mph 29.9 mph N/A   Haze
11:53 AM 73.9 °F 64.9 °F 73% 29.64 in 8.0 mi South 21.9 mph 31.1 mph N/A   Overcast
12:53 PM 75.9 °F 64.9 °F 69% 29.58 in 10.0 mi South 26.5 mph 34.5 mph N/A   Mostly Cloudy
1:20 PM 77.0 °F 64.4 °F 65% 29.55 in 10.0 mi South 28.8 mph 33.4 mph N/A   Overcast
1:53 PM 73.9 °F 66.0 °F 76% 29.55 in 8.0 mi South 29.9 mph 41.4 mph 0.00 in Rain Light Rain
2:15 PM 73.4 °F 66.2 °F 78% 29.52 in 1.8 mi South 18.4 mph 31.1 mph 0.00 in Rain Heavy Rain
2:23 PM 71.6 °F 68.0 °F 88% 29.54 in 0.5 mi SSW 28.8 mph 36.8 mph 0.19 in Fog , Rain Heavy Rain
2:31 PM 71.6 °F 68.0 °F 88% 29.54 in 1.2 mi SSW 27.6 mph 38.0 mph 0.20 in Rain Light Rain
2:33 PM 71.6 °F 68.0 °F 88% 29.53 in 3.0 mi SSW 27.6 mph 38.0 mph 0.20 in Rain Light Rain
2:53 PM 73.9 °F 66.9 °F 79% 29.54 in 9.0 mi South 26.5 mph 41.4 mph 0.20 in   Mostly Cloudy
3:53 PM 75.0 °F 66.0 °F 73% 29.52 in 6.0 mi South 29.9 mph 43.7 mph N/A   Haze
4:53 PM 75.0 °F 66.0 °F 73% 29.52 in 10.0 mi South 29.9 mph 49.5 mph 0.00 in   Overcast
5:21 PM 71.6 °F 66.2 °F 83% 29.59 in 2.5 mi WSW 40.3 mph 50.6 mph 0.09 in Rain , Thunderstorm Rain
5:23 PM 69.8 °F 64.4 °F 83% 29.60 in 0.8 mi WSW 33.4 mph 50.6 mph 0.29 in Rain , Thunderstorm Heavy Rain
5:26 PM 64.4 °F 62.6 °F 94% 29.59 in 0.5 mi SW 31.1 mph 50.6 mph 0.42 in Fog , Rain , Thunderstorm Heavy Thunderstorms and Rain